Location: Newark
(15.4608°S, 41.1635°W)
Time: 01:55:08
(UTC+00:00)

LightSail 2 - Visible Passes

Search period start: 10 December 2019 00:00
Search period end: 20 December 2019 00:00
Orbit: 696 x 730 km, 24.0° (Epoch: 08 December)

Date Brightness Start Highest point End Pass type
(mag) Time Alt. Az. Time Alt. Az. Time Alt. Az.
10 Dec 7.0 05:18:03 27° SE 05:18:03 27° SE 05:20:51 10° ESE visible
10 Dec 6.7 06:57:40 10° WSW 07:02:11 31° S 07:06:44 10° ESE visible
11 Dec 6.6 06:02:26 26° SSW 06:03:55 30° S 06:08:26 10° ESE visible
12 Dec 7.3 05:07:53 22° SE 05:07:53 22° SE 05:10:11 10° ESE visible
12 Dec 6.5 06:47:04 10° WSW 06:51:43 34° S 06:56:23 10° ESE visible
13 Dec 6.5 05:52:24 29° SSW 05:53:26 32° S 05:57:59 10° ESE visible
13 Dec 5.9 07:34:23 10° WSW 07:39:22 53° SSE 07:44:23 10° E visible
14 Dec 7.6 04:58:03 18° SE 04:58:03 18° SE 04:59:38 10° ESE visible
14 Dec 6.1 06:37:02 14° WSW 06:41:08 43° SSE 06:46:00 10° E visible
14 Dec 7.0 22:36:15 10° NNW 22:37:54 16° N 22:37:54 16° N visible
15 Dec 6.3 05:42:48 37° S 05:42:53 37° S 05:47:36 10° ESE visible
15 Dec 5.2 07:23:33 10° WSW 07:28:39 80° SSE 07:33:46 10° ENE visible
15 Dec 6.9 21:39:18 10° N 21:41:46 13° NNE 21:44:14 10° NE visible
15 Dec 7.2 23:22:11 10° NW 23:23:26 17° NW 23:23:26 17° NW visible
16 Dec 8.0 04:48:42 12° ESE 04:48:42 12° ESE 04:49:11 10° ESE visible
16 Dec 5.5 06:27:42 26° SW 06:30:28 61° SSE 06:35:30 10° E visible
16 Dec 5.8 22:24:21 10° NW 22:29:00 34° NNE 22:29:56 31° NE visible
17 Dec 6.5 05:33:47 36° ESE 05:33:47 36° ESE 05:37:09 10° E visible
17 Dec 5.1 07:12:48 10° WSW 07:17:49 63° NNW 07:22:51 10° ENE visible
17 Dec 5.3 23:11:05 10° WNW 23:15:26 62° NW 23:15:26 62° NW visible
18 Dec 4.9 06:19:01 68° WSW 06:19:40 87° NNW 06:24:45 10° ENE visible
18 Dec 5.2 22:12:58 10° NW 22:18:05 58° NNE 22:21:46 18° E visible
18 Dec 7.1 23:58:37 10° W 00:00:48 24° W 00:00:48 24° W visible
19 Dec 7.4 05:25:23 17° E 05:25:23 17° E 05:26:31 10° ENE visible
19 Dec 5.7 07:04:25 23° WNW 07:06:54 37° NNW 07:11:33 10° NE visible
19 Dec 5.4 23:00:13 10° W 23:05:24 67° SSW 23:06:59 43° SE visible
